Weather History for Nantucket, MA

Change the Weather History Date:

Monday, March 3, 2014

  Actual Average Record
Temperature  
Mean Temperature 26 °F -  
Max Temperature 32 °F 39 °F 51 °F (2002)
Min Temperature 21 °F 28 °F 10 °F (1950)
Degree Days  
Heating Degree Days 38    
Moisture  
Dew Point 18 °F    
Average Humidity 75    
Maximum Humidity 88    
Minimum Humidity 48    
Precipitation  
Precipitation 0.00 in - - ()
Sea Level Pressure  
Sea Level Pressure 30.04 in    
Wind  
Wind Speed 15 mph (North)    
Max Wind Speed 29 mph    
Max Gust Speed 37 mph    
Visibility 5 miles    
Events Fog , Snow    
Averages and records for this station are not official NWS values.
T = Trace of Precipitation, MM = Missing Value Source: NWS Daily Summary

Daily Weather History Graph

Daily Weather History Graph

Search for Another Location

Airport:

Trip Planner

Search our weather history database for the weather conditions in past years. The results will help you decide how hot, cold, wet, or windy it might be!

Date:

Astronomy

Mar. 03, 2014 Rise Set
Actual Time 6:11 AM EST 5:33 PM EST
Civil Twilight 5:43 AM EST 6:01 PM EST
Nautical Twilight 5:12 AM EST 6:32 PM EST
Astronomical Twilight 4:40 AM EST 7:05 PM EST
Moon 7:15 AM EST (3/3) 8:35 PM EST (3/3)
Length of Visible Light 12h 17m
Length of Day
11h 21m
Waxing Crescent, 8% of the Moon is Illuminated
Mar 3
Waxing Crescent
Mar 8
First Quarter
Mar 16
Full
Mar 23
Last Quarter
Mar 30
New

Hourly Weather History & Observations

Time (EST) Temp. Windchill Dew Point Humidity Pressure Visibility Wind Dir Wind Speed Gust Speed Precip Events Conditions
12:53 AM 32.0 °F - 28.9 °F 88% 29.94 in 4.0 mi Calm Calm - N/A   Overcast
1:53 AM 32.0 °F - 28.9 °F 88% 29.92 in 5.0 mi Calm Calm - N/A   Overcast
2:53 AM 32.0 °F 23.6 °F 28.0 °F 85% 29.93 in 3.0 mi North 10.4 mph - 0.00 in Snow Light Snow
3:06 AM 32.0 °F 24.8 °F 28.4 °F 87% 29.92 in 6.0 mi North 8.1 mph - 0.00 in   Overcast
3:19 AM 30.2 °F 18.1 °F 26.6 °F 86% 29.92 in 2.5 mi North 18.4 mph 25.3 mph 0.00 in Snow Light Snow
3:38 AM 30.2 °F 18.1 °F 26.6 °F 86% 29.92 in 1.8 mi North 18.4 mph 25.3 mph 0.00 in Snow Light Snow
3:53 AM 28.9 °F 15.8 °F 25.0 °F 85% 29.93 in 1.2 mi North 20.7 mph 26.5 mph 0.00 in Snow Light Snow
4:24 AM 28.4 °F 15.4 °F 24.8 °F 86% 29.93 in 1.8 mi North 19.6 mph 26.5 mph 0.00 in Snow Light Snow
4:53 AM 28.0 °F 15.7 °F 24.1 °F 85% 29.96 in 1.5 mi North 17.3 mph 24.2 mph 0.00 in Snow Light Snow
5:02 AM 28.4 °F 15.8 °F 24.8 °F 86% 29.96 in 1.8 mi North 18.4 mph - 0.00 in Snow Light Snow
5:11 AM 28.4 °F 15.8 °F 24.8 °F 86% 29.96 in 1.8 mi NNW 18.4 mph 25.3 mph 0.00 in Snow Light Snow
5:19 AM 28.4 °F 14.7 °F 24.8 °F 86% 29.96 in 1.8 mi North 21.9 mph 27.6 mph 0.00 in Snow Light Snow
5:42 AM 28.4 °F 14.7 °F 24.8 °F 86% 29.97 in 2.5 mi North 21.9 mph 27.6 mph 0.00 in Snow Light Snow
5:53 AM 28.0 °F 14.9 °F 24.1 °F 85% 29.97 in 2.5 mi North 19.6 mph 25.3 mph 0.00 in Snow Light Snow
6:08 AM 28.4 °F 15.1 °F 23.0 °F 80% 29.98 in 2.0 mi North 20.7 mph - 0.00 in Snow Light Snow
6:10 AM 26.6 °F 12.4 °F 23.0 °F 86% 29.99 in 1.8 mi North 21.9 mph 28.8 mph 0.00 in Snow Light Snow
6:20 AM 28.4 °F 14.4 °F 23.0 °F 80% 29.99 in 3.0 mi North 23.0 mph 27.6 mph 0.00 in Snow Light Snow
6:45 AM 26.6 °F 12.4 °F 23.0 °F 86% 29.99 in 2.5 mi North 21.9 mph 29.9 mph 0.00 in Snow Light Snow
6:53 AM 27.0 °F 12.8 °F 23.0 °F 85% 30.00 in 1.0 mi North 21.9 mph 29.9 mph 0.00 in Snow Light Snow
7:00 AM 26.6 °F 12.0 °F 23.0 °F 86% 29.99 in 0.5 mi North 23.0 mph 31.1 mph 0.00 in Fog , Snow Snow
7:29 AM 24.8 °F 9.3 °F 21.2 °F 86% 30.00 in 0.8 mi North 24.2 mph 29.9 mph 0.00 in Snow Light Snow
7:36 AM 24.8 °F 8.7 °F 21.2 °F 86% 30.01 in 0.8 mi North 26.5 mph 34.5 mph 0.00 in Snow Light Snow
7:43 AM 24.8 °F 8.1 °F 21.2 °F 86% 30.01 in 1.0 mi North 28.8 mph 35.7 mph 0.00 in Snow Light Snow
7:53 AM 24.1 °F 7.4 °F 19.9 °F 84% 30.02 in 1.2 mi North 27.6 mph 36.8 mph 0.00 in Snow Light Snow
8:19 AM 23.0 °F 6.0 °F 19.4 °F 86% 30.04 in 1.2 mi North 27.6 mph 34.5 mph 0.00 in Snow Light Snow
8:26 AM 23.0 °F 6.3 °F 19.4 °F 86% 30.04 in 1.5 mi North 26.5 mph 34.5 mph 0.00 in Snow Light Snow
8:53 AM 21.9 °F 4.8 °F 17.1 °F 82% 30.04 in 1.2 mi North 26.5 mph 34.5 mph 0.00 in Snow Light Snow
9:43 AM 21.2 °F 5.2 °F 15.8 °F 80% 30.07 in 2.0 mi North 21.9 mph 33.4 mph 0.00 in Snow Light Snow
9:53 AM 21.0 °F 5.0 °F 14.0 °F 74% 30.07 in 1.2 mi North 21.9 mph 31.1 mph 0.00 in Snow Light Snow
10:31 AM 23.0 °F 8.0 °F 14.0 °F 68% 30.08 in 10.0 mi North 20.7 mph 32.2 mph 0.00 in   Overcast
10:53 AM 23.0 °F 8.3 °F 12.9 °F 65% 30.09 in 10.0 mi North 19.6 mph - 0.00 in   Overcast
11:53 AM 23.0 °F 7.6 °F 12.9 °F 65% 30.08 in 10.0 mi North 21.9 mph 29.9 mph N/A   Overcast
12:53 PM 23.0 °F 8.7 °F 10.9 °F 60% 30.07 in 10.0 mi North 18.4 mph - N/A   Overcast
1:53 PM 23.0 °F 9.2 °F 10.0 °F 58% 30.08 in 10.0 mi North 17.3 mph 23.0 mph N/A   Mostly Cloudy
2:53 PM 21.9 °F 8.2 °F 9.0 °F 58% 30.09 in 10.0 mi North 16.1 mph - N/A   Overcast
3:53 PM 21.9 °F 8.2 °F 9.0 °F 58% 30.12 in 10.0 mi North 16.1 mph 23.0 mph N/A   Overcast
4:53 PM 21.9 °F 7.8 °F 8.1 °F 55% 30.14 in 10.0 mi North 17.3 mph 21.9 mph N/A   Scattered Clouds
5:53 PM 21.9 °F 9.2 °F 8.1 °F 55% 30.17 in 10.0 mi North 13.8 mph - N/A   Mostly Cloudy
6:53 PM 23.0 °F 13.1 °F 8.1 °F 53% 30.19 in 10.0 mi North 9.2 mph - N/A   Clear
7:53 PM 23.0 °F 11.7 °F 7.0 °F 50% 30.22 in 10.0 mi North 11.5 mph - N/A   Clear
8:53 PM 23.0 °F 11.7 °F 7.0 °F 50% 30.23 in 10.0 mi North 11.5 mph - N/A   Clear
9:53 PM 23.0 °F 11.7 °F 6.1 °F 48% 30.25 in 10.0 mi North 11.5 mph - N/A   Clear
10:53 PM 21.9 °F 11.0 °F 6.1 °F 51% 30.25 in 10.0 mi North 10.4 mph - N/A   Clear
11:53 PM 21.9 °F 11.0 °F 6.1 °F 51% 30.25 in 10.0 mi North 10.4 mph - N/A   Clear